Temp
9 9 10 9 9 11 10 11 11 12 13 13 13 14 13 16 15 16 17 17 17 18 19 19 18 17 15 14 13 13 13 13 13 12 12 12 13 13 13 14 14 14 13 13
8 9 11 10 10 10 10 10 10 12 13 12 12 13 14 13 15 16 17 18 18 18 18 18 17 16 16 16 15 14 14 13 13 13 12 12 13 14 14 14 14 14 14 13
10 11 11 10 9 9 9 9 11 11 13 12 12 11 12 12 15 16 17 18 18 19 18 19 18 18 17 16 16 16 15 14 13 13 13 12 12 12 12 13 13 13 14 13
10 10 10 9 9 10 9 9 11 11 12 10 12 12 12 14 13 13 16 17 18 18 19 18 18 18 18 18 17 16 16 15 14 14 13 13 13 14 15 15 15 14 14 14
9 10 10 9 10 10 10 10 10 10 11 11 11 10 11 13 12 13 15 16 17 18 18 19 18 18 18 18 18 18 17 16 15 14 14 14 14 14 14 14 15 15 14 14
8 9 11 10 10 11 9 9 9 8 10 11 11 11 11 13 12 13 14 17 18 18 18 19 19 18 18 18 18 18 17 17 16 15 14 14 15 14 14 14 14 14 15 14
8 8 9 11 10 10 10 9 9 10 10 11 11 9 13 12 12 14 15 17 18 18 18 18 18 18 18 18 18 18 17 17 17 16 15 14 14 14 15 15 15 14 15 14
8 7 8 9 10 10 9 11 8 10 9 10 8 10 12 12 16 16 16 16 17 17 17 18 19 18 18 18 18 18 18 18 17 16 16 15 14 14 14 14 15 15 15 15
8 9 9 9 10 11 9 9 12 9 1 6 8 9 11 11 12 13 14 15 16 17 17 18 18 19 19 18 18 18 18 18 17 17 16 16 16 15 15 15 14 14 14 14
7 7 7 8 10 10 11 11 10 9 8 7 8 8 13 13 12 14 11 13 16 16 17 17 17 17 18 18 18 17 17 18 18 18 18 17 16 15 15 14 14 14 14 14
8 8 6 7 8 10 9 10 10 11 8 9 8 11 9 13 14 15 12 15 16 16 16 16 16 17 17 18 17 16 16 17 17 17 17 16 16 15 15 14 14 14 13 13
8 8 7 8 7 6 9 10 10 11 10 7 8 11 11 9 9 12 13 15 15 15 16 16 16 16 16 16 16 16 16 16 16 15 15 15 14 14 14 13 13 13 12 12
8 7 8 7 7 6 7 9 11 12 9 10 10 12 11 10 11 12 13 14 15 15 15 16 16 16 16 16 16 16 16 16 16 15 14 14 13 12 12 12 12 11 12 12
9 6 8 10 10 8 8 9 10 11 10 11 11 12 13 12 11 11 13 14 14 15 15 15 16 15 15 15 15 15 15 15 15 15 15 14 14 13 12 12 11 11 11 11
7 7 7 7 7 8 9 9 10 10 11 11 13 11 13 11 10 12 15 14 14 14 14 15 14 14 14 14 15 15 15 15 15 15 15 14 14 13 13 12 12 11 10 10
7 6 6 6 7 7 6 8 9 10 10 12 12 11 13 15 13 12 14 14 13 14 14 14 14 13 13 13 14 14 14 15 15 15 15 14 14 13 12 12 11 11 10 9
3 4 6 7 7 7 7 7 8 8 11 11 11 13 10 11 10 12 13 15 14 14 14 14 13 13 13 13 13 13 13 14 14 14 14 14 13 13 12 12 11 10 9 8
3 4 3 4 7 7 9 10 9 9 11 12 12 12 12 13 14 14 15 15 14 14 13 13 13 13 13 13 12 12 12 12 13 13 12 12 12 11 11 11 10 10 10 10
5 4 3 4 7 7 7 6 8 9 10 12 11 12 12 12 13 13 15 14 14 12 12 12 11 11 11 12 12 12 12 12 11 11 11 11 10 10 10 9 9 9 9 9
3 5 6 5 7 8 11 8 10 10 9 12 12 12 12 11 10 12 12 12 12 12 12 13 12 11 11 11 11 11 11 10 10 9 9 9 9 9 9 9 9 8 8 7
4 4 4 5 7 6 6 6 10 8 10 12 12 12 12 10 13 14 12 12 12 12 12 11 11 10 10 10 10 10 10 10 10 10 9 9 9 9 8 8 8 7 6 4
6 6 6 6 6 7 5 9 10 10 8 11 12 12 11 12 12 13 12 11 11 11 10 9 9 9 10 9 9 9 9 9 9 9 9 8 8 8 7 7 5 3 3 3
5 6 5 7 8 4 7 5 9 9 10 10 10 12 12 11 10 10 10 10 9 9 8 7 8 8 8 8 8 8 8 8 8 8 8 7 7 7 7 7 6 4 2 2
2 -2 4 5 2 -1 2 5 5 7 9 9 9 9 9 9 9 9 7 6 6 6 6 6 6 7 7 7 7 8 8 7 7 7 7 7 6 6 6 5 5 5 3 1
-5 -5 -2 1 -2 0 1 -0 -0 4 6 8 8 8 7 9 5 6 5 4 4 4 4 4 5 6 7 7 6 6 5 6 5 5 6 5 5 5 4 4 3 3 3 1
-11 -11 -6 -2 -8 -7 -3 -6 -2 2 3 4 7 6 6 7 6 5 4 3 3 3 3 4 5 6 5 4 4 5 5 5 5 4 5 5 4 4 3 3 2 1 1 0
Height
1538 1541 1536 1537 1543 1543 1546 1548 1551 1544 1540 1543 1541 1534 1534 1531 1533 1532 1532 1533 1533 1533 1535 1536 1538 1540 1543 1544 1547 1549 1552 1554 1558 1560 1563 1565 1565 1569 1572 1573 1576 1578 1579 1581
1538 1530 1530 1538 1542 1544 1547 1548 1549 1543 1538 1543 1541 1534 1528 1528 1527 1526 1527 1527 1529 1530 1530 1530 1533 1535 1536 1538 1540 1543 1544 1548 1551 1555 1557 1559 1562 1563 1566 1569 1571 1573 1575 1576
1526 1523 1530 1538 1541 1545 1545 1549 1549 1547 1538 1538 1539 1536 1527 1521 1520 1519 1520 1520 1522 1522 1523 1524 1526 1527 1529 1530 1533 1535 1538 1541 1546 1549 1552 1555 1557 1559 1561 1562 1565 1567 1570 1572
1525 1525 1528 1534 1536 1539 1544 1542 1545 1546 1544 1551 1538 1537 1519 1514 1514 1512 1510 1511 1512 1513 1514 1516 1518 1519 1521 1522 1527 1530 1532 1535 1539 1543 1544 1545 1547 1549 1552 1555 1558 1561 1564 1566
1515 1518 1524 1528 1525 1536 1536 1536 1541 1544 1545 1545 1540 1544 1516 1511 1512 1505 1500 1500 1502 1503 1504 1505 1508 1511 1514 1517 1519 1522 1525 1528 1531 1535 1538 1539 1540 1543 1547 1550 1552 1554 1556 1559
1516 1518 1517 1518 1522 1527 1531 1537 1541 1545 1545 1542 1531 1536 1509 1507 1504 1497 1492 1490 1492 1494 1494 1496 1498 1502 1504 1509 1512 1514 1517 1519 1523 1527 1531 1533 1535 1537 1539 1542 1545 1548 1550 1552
1516 1514 1514 1517 1522 1526 1527 1536 1543 1545 1544 1525 1519 1534 1493 1495 1491 1485 1483 1481 1484 1487 1488 1487 1488 1491 1495 1498 1503 1507 1509 1513 1516 1519 1523 1526 1529 1532 1532 1534 1537 1541 1543 1543
1511 1517 1509 1510 1512 1516 1521 1526 1535 1535 1534 1522 1524 1515 1493 1483 1481 1478 1476 1477 1480 1481 1482 1482 1481 1482 1486 1490 1494 1498 1501 1505 1508 1511 1515 1519 1522 1524 1526 1527 1529 1531 1533 1535
1502 1501 1495 1498 1508 1510 1519 1519 1508 1526 1557 1537 1519 1500 1488 1481 1479 1474 1471 1471 1470 1471 1475 1477 1477 1477 1479 1482 1485 1488 1494 1498 1501 1505 1508 1510 1513 1515 1515 1518 1520 1522 1525 1526
1501 1503 1500 1500 1506 1504 1501 1505 1519 1521 1531 1532 1510 1505 1482 1479 1475 1467 1466 1466 1466 1468 1468 1470 1471 1472 1473 1475 1478 1481 1486 1490 1494 1497 1500 1501 1504 1507 1509 1511 1512 1513 1515 1517
1497 1498 1507 1502 1495 1492 1503 1503 1503 1502 1515 1508 1514 1488 1471 1464 1461 1457 1459 1462 1463 1464 1462 1464 1466 1468 1468 1469 1471 1475 1480 1485 1488 1491 1494 1495 1497 1499 1501 1502 1503 1504 1507 1508
1489 1493 1495 1490 1493 1494 1491 1491 1496 1498 1497 1502 1501 1477 1460 1461 1459 1458 1457 1459 1461 1463 1461 1462 1463 1464 1465 1465 1469 1472 1475 1478 1482 1485 1487 1488 1491 1492 1493 1494 1495 1498 1499 1501
1481 1485 1488 1489 1495 1493 1490 1484 1478 1481 1490 1487 1491 1470 1458 1457 1456 1457 1458 1460 1462 1463 1461 1462 1462 1462 1463 1464 1466 1469 1471 1473 1476 1477 1479 1481 1482 1483 1484 1486 1488 1490 1491 1493
1476 1479 1473 1464 1465 1472 1478 1478 1479 1480 1487 1472 1474 1462 1459 1459 1458 1458 1459 1461 1461 1462 1462 1462 1463 1463 1463 1466 1467 1467 1469 1470 1471 1471 1472 1473 1474 1475 1476 1478 1480 1482 1484 1485
1477 1469 1470 1470 1472 1468 1464 1468 1470 1471 1460 1474 1452 1461 1455 1452 1451 1451 1453 1457 1458 1459 1459 1461 1462 1463 1464 1465 1466 1467 1467 1468 1467 1467 1467 1466 1466 1466 1467 1469 1471 1473 1475 1477
1473 1468 1465 1465 1469 1468 1470 1468 1465 1463 1458 1461 1450 1452 1444 1448 1449 1451 1450 1454 1455 1456 1456 1457 1459 1460 1461 1462 1463 1464 1463 1462 1463 1463 1462 1461 1461 1461 1461 1461 1462 1464 1466 1469
1473 1475 1469 1452 1461 1462 1463 1452 1453 1457 1450 1446 1448 1425 1445 1445 1444 1443 1445 1446 1448 1451 1453 1454 1456 1457 1458 1459 1459 1459 1458 1458 1458 1457 1457 1457 1457 1456 1457 1457 1457 1458 1460 1462
1465 1470 1480 1472 1459 1444 1419 1432 1436 1439 1429 1435 1434 1427 1434 1436 1436 1439 1441 1442 1446 1448 1449 1451 1452 1453 1453 1453 1453 1454 1453 1452 1451 1451 1452 1452 1453 1454 1454 1454 1455 1455 1456 1456
1453 1462 1472 1471 1448 1434 1423 1415 1418 1429 1411 1416 1424 1419 1427 1434 1437 1436 1437 1439 1441 1444 1447 1447 1447 1448 1448 1448 1448 1448 1447 1446 1445 1446 1447 1448 1449 1450 1450 1450 1451 1452 1453 1452
1444 1446 1446 1456 1439 1420 1386 1400 1407 1425 1423 1401 1409 1410 1420 1431 1438 1416 1426 1433 1438 1441 1441 1440 1442 1444 1443 1443 1444 1444 1444 1443 1443 1443 1444 1445 1447 1447 1448 1447 1447 1448 1448 1447
1430 1438 1436 1434 1429 1416 1397 1395 1403 1428 1393 1383 1390 1399 1414 1414 1397 1416 1423 1428 1432 1434 1435 1437 1438 1440 1441 1440 1440 1440 1441 1440 1440 1441 1441 1442 1442 1443 1444 1444 1444 1444 1444 1444
1405 1418 1416 1418 1418 1408 1388 1395 1390 1385 1381 1383 1387 1389 1393 1390 1405 1409 1415 1420 1424 1427 1431 1433 1435 1437 1437 1438 1438 1439 1440 1441 1441 1441 1441 1441 1442 1442 1443 1443 1442 1442 1442 1442
1402 1401 1403 1396 1385 1389 1388 1385 1384 1382 1382 1383 1385 1383 1382 1388 1395 1403 1406 1412 1418 1424 1429 1431 1433 1433 1435 1436 1437 1438 1439 1441 1441 1442 1442 1442 1442 1443 1442 1441 1440 1440 1440 1440
1391 1403 1393 1390 1392 1391 1387 1387 1385 1385 1381 1383 1381 1379 1381 1383 1389 1398 1405 1411 1416 1422 1426 1428 1430 1432 1433 1435 1436 1437 1439 1441 1441 1441 1441 1441 1441 1441 1440 1439 1438 1437 1437 1438
1413 1405 1400 1392 1393 1392 1389 1394 1395 1388 1385 1382 1380 1382 1385 1387 1392 1398 1405 1412 1415 1419 1424 1427 1430 1431 1432 1434 1437 1439 1440 1439 1439 1439 1439 1439 1440 1440 1439 1438 1437 1437 1436 1435
1427 1426 1416 1404 1415 1413 1403 1404 1396 1391 1387 1387 1385 1389 1392 1394 1394 1400 1406 1412 1416 1420 1424 1427 1428 1430 1436 1439 1438 1436 1437 1438 1438 1439 1439 1440 1440 1440 1439 1439 1439 1439 1437 1435
Wind_Speed
7 5 16 17 6 5 6 5 9 4 10 5 15 20 10 25 12 16 25 25 26 31 21 24 25 24 31 32 32 33 34 38 39 37 34 35 34 31 29 27 25 24 24 23
4 16 15 6 3 4 4 2 4 4 4 7 8 17 15 11 15 26 26 30 31 28 29 28 31 29 30 32 35 36 37 36 39 42 40 39 36 33 30 29 28 28 26 25
15 4 12 10 5 10 9 8 3 5 2 3 2 9 9 8 26 29 32 35 35 32 28 27 30 34 33 35 35 36 38 38 37 41 42 42 38 37 35 34 32 32 30 29
13 8 15 8 15 13 15 8 6 6 2 5 5 8 8 9 15 13 30 35 40 39 39 39 38 36 40 40 34 35 36 40 39 39 44 46 46 43 40 37 33 33 32 31
8 12 15 17 16 12 8 8 13 7 4 3 4 4 6 5 9 14 24 34 41 45 47 48 45 42 44 42 38 35 35 40 40 41 43 46 49 47 43 41 38 36 35 35
7 2 17 11 13 17 9 5 4 3 3 12 11 8 8 11 9 9 20 32 36 38 41 42 39 41 44 45 43 39 38 38 40 41 42 46 47 48 48 46 44 41 39 39
8 16 3 9 11 8 10 9 4 7 7 17 10 9 22 7 8 13 17 31 32 31 31 32 34 38 42 45 46 44 42 39 38 40 42 44 46 46 47 48 47 45 43 43
13 8 16 7 11 6 19 16 5 7 6 9 3 9 7 12 32 36 33 31 25 19 19 21 24 30 37 45 47 48 47 42 40 38 40 41 43 46 46 47 47 47 47 44
7 10 1 10 8 9 8 16 12 3 3 2 6 8 6 8 10 22 28 28 31 29 25 22 21 17 26 33 41 48 48 44 42 38 36 38 40 44 46 47 48 48 47 47
5 2 3 7 12 14 15 7 11 4 5 6 5 6 10 3 13 15 7 18 23 19 15 16 17 20 20 24 28 36 44 44 40 37 36 38 40 41 43 46 47 47 46 45
3 5 1 3 11 20 6 13 9 6 3 5 3 7 7 18 18 19 10 16 14 17 14 12 14 16 15 16 21 26 36 40 41 40 40 41 41 42 43 45 46 46 46 46
15 5 10 14 6 2 14 12 19 10 19 3 1 11 3 8 9 11 14 14 11 11 10 8 8 13 14 13 14 19 25 30 34 37 39 40 41 42 44 45 44 43 45 45
14 8 9 3 3 4 7 15 19 19 2 18 12 10 4 5 0 8 14 14 15 13 12 10 9 9 7 8 12 16 19 23 26 29 32 35 37 38 41 43 43 43 44 44
15 6 10 13 5 5 13 18 18 23 13 22 19 19 8 6 6 7 14 17 16 11 6 6 4 3 4 3 3 4 4 6 11 18 25 31 34 36 37 38 39 39 40 40
6 12 14 14 8 3 11 19 25 24 34 17 26 21 16 12 13 20 26 23 18 14 10 8 6 6 6 6 6 8 8 9 10 12 14 16 20 26 31 34 35 35 35 35
6 7 8 16 13 12 12 16 16 26 29 25 27 18 20 22 11 20 24 24 22 18 12 10 9 8 8 9 11 13 14 15 16 16 15 16 16 17 20 23 26 29 29 28
4 2 7 19 11 14 14 28 24 24 27 30 27 38 6 10 8 17 27 34 35 23 14 11 11 10 13 16 18 18 19 20 20 19 18 17 16 16 16 16 18 21 23 24
5 6 2 8 9 17 23 15 29 31 31 29 29 17 19 20 26 26 27 29 26 21 17 16 14 15 16 17 19 18 19 19 19 19 18 16 14 14 13 13 13 15 18 21
17 8 4 5 12 4 7 9 26 22 32 29 29 31 21 16 13 18 29 28 25 19 15 12 10 11 11 12 12 13 13 13 13 14 14 14 13 12 12 13 14 14 15 17
18 18 8 9 12 9 13 7 26 11 20 32 34 26 25 15 8 16 29 24 19 16 11 10 9 8 8 8 8 9 8 7 7 8 9 10 10 12 12 12 12 12 12 11
7 12 19 16 12 8 5 7 33 15 14 15 39 35 27 17 34 23 26 22 18 14 11 12 11 9 8 6 6 5 5 5 4 4 5 6 7 9 11 11 11 11 10 10
9 6 10 9 7 14 11 24 22 11 3 5 9 31 37 49 31 28 29 23 19 18 18 16 13 11 11 10 10 8 7 7 5 4 3 2 4 6 9 10 9 9 9 8
5 8 4 11 7 2 21 9 4 1 2 3 9 14 35 34 33 30 30 27 24 21 19 16 14 15 14 12 10 8 6 5 3 2 2 3 4 6 7 8 9 9 9 9
5 5 3 3 2 6 11 10 11 7 2 3 7 10 22 33 31 32 31 26 24 21 20 19 17 15 13 11 8 5 4 3 4 5 6 7 8 8 9 9 9 10 10 10
1 8 5 1 5 1 16 21 16 7 4 4 6 9 19 30 30 32 28 25 23 23 22 19 16 13 11 8 6 6 5 6 7 8 9 9 9 9 9 9 8 8 9 8
9 5 4 3 10 9 5 19 12 4 8 7 12 15 20 26 31 30 28 25 24 23 20 18 15 12 11 10 8 7 6 6 7 7 7 7 7 7 7 7 7 7 6 6
Wind_Direction
183 180 206 200 192 205 169 182 213 236 237 192 224 246 235 241 241 240 231 224 224 230 240 237 233 229 223 226 226 224 222 221 220 223 223 231 231 232 234 233 232 231 233 235
173 216 205 182 189 223 240 229 244 284 274 180 260 254 247 238 241 240 240 236 238 236 234 235 233 230 226 229 230 227 225 225 223 224 226 232 234 235 237 237 236 235 234 236
205 226 168 177 178 216 236 221 227 237 280 206 324 267 253 241 242 247 250 250 242 236 232 233 238 234 233 230 230 232 230 228 229 229 229 230 236 238 237 236 235 236 237 237
229 184 178 176 213 197 226 169 215 262 256 233 164 273 245 232 237 223 240 243 243 244 243 244 241 243 237 234 236 239 238 232 231 231 231 229 233 234 236 238 239 239 240 241
190 184 188 201 210 191 220 175 205 219 227 316 221 266 261 210 233 238 238 240 244 246 249 250 251 251 244 236 238 241 241 237 234 233 235 234 234 238 241 243 244 242 244 245
232 235 193 205 197 195 153 88 57 78 154 251 223 218 224 227 219 238 239 241 245 249 253 257 256 248 244 241 237 238 239 241 236 234 237 238 238 238 240 243 246 247 248 248
194 228 268 197 200 187 181 157 205 214 211 240 183 210 247 241 239 226 232 240 247 257 256 257 252 246 241 239 236 235 237 240 242 239 239 241 243 244 245 247 249 251 250 250
212 224 199 165 219 200 200 193 178 201 198 248 104 231 240 221 234 246 247 253 255 244 247 255 254 249 245 242 242 238 235 238 242 244 244 244 246 247 250 251 252 253 255 257
200 225 250 197 176 175 183 212 205 81 10 67 209 274 292 256 262 259 251 247 249 250 254 253 246 249 247 244 244 241 235 237 242 247 251 252 251 249 250 253 254 255 258 260
208 297 236 181 180 227 216 167 200 214 192 231 245 256 233 292 246 250 254 242 247 233 231 234 237 239 247 245 246 245 237 239 247 253 254 255 256 256 257 257 257 258 261 262
188 200 292 123 204 194 184 205 213 188 175 222 257 251 215 217 219 237 228 238 241 215 209 214 221 225 230 235 234 238 237 237 242 248 253 254 257 260 260 259 261 261 263 263
199 231 228 219 175 212 242 216 201 207 215 223 188 250 209 248 252 235 210 195 196 192 179 179 203 222 224 222 224 227 232 238 244 249 252 255 258 261 264 265 266 266 266 268
181 220 232 208 266 206 229 223 207 223 123 223 226 246 329 17 144 182 179 177 170 156 141 134 121 109 126 194 222 232 237 243 245 246 250 251 254 257 261 265 268 269 268 268
194 199 226 227 225 147 209 201 222 211 225 235 228 247 235 245 225 209 191 186 178 177 172 167 172 172 160 146 157 168 199 230 242 246 250 252 254 255 256 258 260 264 265 266
222 231 215 237 260 313 230 219 215 209 224 218 237 233 223 211 203 205 199 198 203 203 202 216 224 219 225 239 255 262 268 268 261 260 259 256 252 250 252 254 256 256 255 258
190 256 219 238 238 228 237 241 234 222 228 231 247 251 221 241 220 212 217 212 216 213 218 216 213 218 241 258 265 265 263 261 265 266 262 256 254 255 254 253 252 252 253 255
130 306 251 257 224 235 237 230 220 231 235 219 229 234 141 221 222 211 212 212 219 222 217 202 204 236 263 270 271 268 265 261 262 263 261 259 255 249 250 252 251 248 246 245
195 205 125 282 245 220 241 222 217 217 223 224 236 246 218 222 232 237 233 212 212 214 205 212 234 247 253 263 268 266 262 260 259 258 255 254 255 254 253 254 256 256 255 254
205 174 180 246 260 291 264 221 197 198 231 224 229 238 225 223 215 240 234 216 214 204 214 219 218 227 236 245 251 257 260 258 254 252 253 253 250 246 246 248 250 257 262 264
195 208 197 227 244 235 247 178 192 183 252 229 227 236 230 183 214 231 204 201 200 208 217 243 239 240 241 247 245 242 241 242 245 247 248 249 251 254 256 260 265 265 266 272
180 209 208 210 239 278 238 186 142 164 241 200 211 221 210 201 221 217 199 198 207 215 222 215 215 221 225 211 186 182 186 190 196 203 212 222 234 244 252 257 261 266 270 274
175 216 202 207 188 247 174 148 164 204 89 106 193 219 211 218 211 197 191 190 201 208 205 205 204 196 183 167 151 144 139 134 135 137 158 213 247 259 266 268 271 274 275 280
203 195 210 206 201 274 177 339 191 20 204 232 240 235 217 207 201 198 192 188 188 193 194 189 187 175 163 155 147 138 127 111 90 57 14 336 318 304 297 293 289 284 284 283
135 343 226 172 19 341 37 35 24 10 42 238 238 217 210 194 182 180 176 173 174 177 177 171 168 162 154 143 131 118 104 76 40 11 360 348 338 330 325 319 313 308 299 288
18 321 332 48 11 22 45 19 0 25 64 103 116 176 183 177 163 166 164 165 164 163 161 160 159 152 139 134 135 119 93 56 33 15 8 2 356 353 348 340 332 329 320 307
358 8 348 39 6 316 351 341 10 59 80 105 136 143 155 165 159 161 156 156 156 156 153 154 148 144 146 138 125 100 77 57 43 32 26 19 15 13 11 3 351 344 335 330